Regional Weather Roundup
Issued by NWS Kansas City/Pleasant Hill, MO

Home | Current Version | Previous Version | Text Only | Print | Product List | Glossary On
Versions: 1 2 3 4 5 6 7 8 9 10 11 12 13 14 15 16 17 18 19 20 21 22 23 24 25 26 27 28 29 30 31 32 33 34 35 36 37 38 39 40 41 42 43 44 45 46 47 48 49 50
000
ASUS43 KEAX 290810
RWREAX

WEATHER ROUNDUP FOR EASTERN KANSAS AND NORTHWEST MISSOURI
NATIONAL WEATHER SERVICE KANSAS CITY/PLEASANT HILL MO
300 AM CDT SUN MAY 29 2016

KSZ040-057-103>105-MOZ028-029-037-043-290900-
...KANSAS CITY METROPOLITAN AREA...

CITY           SKY/WX    TMP DP  RH WIND       PRES   REMARKS
K.C. INTL      CLEAR     61  58  90 S6        30.02S
K.C. DOWNTOWN  CLEAR     66  59  78 SW5       30.01F
LEES SUMMIT    CLEAR     64  59  83 SW5       30.03S
OLATHE - IXD   CLEAR     59  59 100 S5        30.04S
OLATHE - OJC   CLEAR     59  58  96 S3        30.04R
LAWRENCE       CLEAR     57  56  96 CALM      30.03R

$$

MOZ001>008-011>017-020>025-030>033-038>040-044>046-053-054-290900-
...NORTHERN AND CENTRAL MISSOURI...

CITY           SKY/WX    TMP DP  RH WIND       PRES   REMARKS
ST. JOSEPH     CLEAR     62  59  90 CALM      30.01R
MOSBY            N/A     59  59 100 CALM      30.02S
WARRENSBURG    CLEAR     61  59  94 S6        30.03S
WHITEMAN AFB   CLEAR     62  62  99 SW5       30.02S
CLINTON        CLEAR     63  63 100 CALM      30.04S
SEDALIA        CLEAR     65  61  87 SW8       30.04S
WARSAW         NOT AVBL
CHILLICOTHE      N/A     64  60  87 CALM      30.01S
KIRKSVILLE     CLEAR     62  59  90 SW5       30.00S

$$

MOZ041-047>049-056>058-063>065-088>090-097-290900-
...EASTERN AND SOUTHERN MISSOURI...

CITY           SKY/WX    TMP DP  RH WIND       PRES   REMARKS
ST. LOUIS INTL PTCLDY    69  58  67 CALM      30.03R
SPIRIT OF STL  CLEAR     65  60  84 CALM      30.02R
COLUMBIA       PTCLDY    64  62  93 SW6       30.03S
JEFFERSON CITY CLEAR     68  62  81 CALM      30.02S
ROLLA          CLEAR     66  62  87 W8        30.03S
SPRINGFIELD    CLEAR     62  59  90 S6        30.07R
JOPLIN         CLEAR     64  62  93 S6        30.07R
WEST PLAINS    PTCLDY    66  63  90 SW3       30.07S

$$

IAZ060-094-KSZ022-034>040-054-083-096-NEZ052-066-093-290900-
...KANSAS...SOUTHEAST NEBRASKA AND IOWA...

CITY           SKY/WX    TMP DP  RH WIND       PRES   REMARKS
TOPEKA           N/A     60  58  92 CALM      30.02S
MANHATTAN      CLEAR     58  55  90 CALM      30.02S
EMPORIA        CLEAR     58  56  93 S9        30.05R
CHANUTE        CLEAR     63  61  93 S5        30.05R
WICHITA        CLEAR     65  58  78 E3        30.05R
OMAHA          CLEAR     59  54  83 CALM      29.99S
LINCOLN        CLEAR     59  56  89 CALM      30.02R
FALLS CITY     CLEAR     61  58  90 W3        30.01R
LAMONI         CLEAR     61  57  87 W9        29.99S
DES MOINES     PTCLDY    62  56  80 W9        29.96R

$$




USA.gov is the U.S. government's official web portal to all federal, state and local government web resources and services.